Location: ?
(35.4214°N, 139.3011°E)
Time: 21:49:10
(UTC+00:00)

Cosmos 2221 - Pass Details

Date: 14 July 2020
Orbit: 592 x 617 km, 82.5° (Epoch: 10 August)

Event Time Altitude Azimuth Distance (km) Brightness Sun altitude
Rises 11:32:10 0° 0° (N) 2,873 6.6 -16.4°
Reaches altitude 10° 11:34:29 10° 7° (N) 1,961 5.6 -16.8°
Maximum altitude 11:38:39 45° 80° (E) 827 2.9 -17.4°
Enters shadow 11:39:48 36° 122° (ESE) 962 3.0 -17.6°
